EW0578 Weather Reports


time (UTC)temp
F
wind
direction
speed
knots
gust
knots
rain 1hr
in
rain 24hr
in
rain mn
in
humidity
%
barometer
mb
20260505224010 73 248 13.9 19.1 0.00 0.05 0.05 25 1003.6
20260505223508 73 250 10.4 17.4 0.00 0.05 0.05 26 1003.6
20260505223008 73 267 11.3 20.9 0.00 0.05 0.05 25 1003.7
20260505222508 73 234 14.8 23.5 0.00 0.05 0.05 25 1003.7
20260505222010 73 222 12.2 23.5 0.00 0.05 0.05 26 1003.8
20260505221506 73 242 11.3 23.5 0.00 0.05 0.05 25 1003.9
20260505221006 74 217 13.0 23.5 0.00 0.05 0.05 24 1003.9
20260505220506 73 197 9.6 18.2 0.00 0.05 0.05 27 1003.8
20260505220005 73 265 9.6 18.2 0.00 0.05 0.05 26 1004.0
20260505215505 73 255 11.3 21.7 0.00 0.05 0.05 25 1004.0
20260505215005 73 244 11.3 24.3 0.00 0.05 0.05 26 1004.2
20260505214504 73 213 12.2 25.2 0.00 0.05 0.05 25 1004.3
20260505214003 73 245 13.9 25.2 0.00 0.05 0.05 25 1004.3
20260505213502 72 227 10.4 18.2 0.00 0.05 0.05 27 1004.3
20260505213002 72 232 8.7 23.5 0.00 0.05 0.05 27 1004.3
20260505212501 72 204 13.0 23.5 0.00 0.05 0.05 27 1004.5
20260505212100 72 225 11.3 25.2 0.00 0.05 0.05 28 1004.6
20260505211641 72 223 12.2 25.2 0.00 0.05 0.05 28 1004.7
20260505211104 71 243 13.0 24.3 0.00 0.05 0.05 26 1004.6
20260505210559 72 242 14.8 21.7 0.00 0.05 0.05 28 1004.7
20260505210059 72 213 11.3 21.7 0.00 0.05 0.05 26 1004.7
20260505205559 72 232 10.4 22.6 0.00 0.05 0.05 29 1004.7
20260505205059 71 218 11.3 22.6 0.00 0.05 0.05 30 1004.8
20260505204608 71 262 11.3 20.0 0.00 0.05 0.05 29 1004.8
20260505204058 72 209 11.3 19.1 0.00 0.05 0.05 28 1004.8
20260505203558 72 227 14.8 19.1 0.00 0.05 0.05 28 1004.9
20260505203059 71 255 7.8 18.2 0.00 0.05 0.05 31 1004.7
20260505202557 72 250 11.3 21.7 0.00 0.05 0.05 29 1004.8
20260505202056 72 240 13.0 21.7 0.00 0.05 0.05 29 1004.7
20260505201556 72 265 7.0 20.0 0.00 0.05 0.05 30 1004.7
20260505201055 72 241 12.2 19.1 0.00 0.05 0.05 30 1004.6
20260505200554 71 211 9.6 15.6 0.00 0.05 0.05 31 1004.7
20260505200054 71 257 10.4 19.1 0.00 0.05 0.05 32 1004.8
20260505195555 71 247 10.4 20.9 0.00 0.05 0.05 32 1004.8
20260505195055 70 256 12.2 20.9 0.00 0.05 0.05 31 1004.8
20260505194554 71 199 10.4 17.4 0.00 0.05 0.05 29 1004.9
20260505194053 72 276 11.3 20.0 0.00 0.05 0.05 31 1004.8
20260505193552 71 230 13.0 20.9 0.00 0.05 0.05 32 1004.9
20260505193052 71 210 11.3 21.7 0.00 0.05 0.05 32 1005.0
20260505192556 71 225 13.0 21.7 0.00 0.05 0.05 33 1005.0
20260505192051 71 223 9.6 16.5 0.00 0.05 0.05 33 1005.1
20260505191550 71 173 10.4 18.2 0.00 0.05 0.05 35 1005.1
20260505191050 71 219 13.0 18.2 0.00 0.05 0.05 35 1005.4
20260505190550 71 240 9.6 22.6 0.00 0.05 0.05 37 1005.4
20260505190047 70 227 13.0 22.6 0.00 0.05 0.05 38 1005.4
20260505185547 70 224 10.4 20.0 0.00 0.05 0.05 37 1005.6
20260505185046 70 236 11.3 17.4 0.00 0.05 0.05 39 1005.5
20260505184546 69 255 9.6 17.4 0.00 0.05 0.05 42 1005.5
20260505184048 69 222 6.1 16.5 0.00 0.05 0.05 42 1005.6
20260505183546 70 219 11.3 20.9 0.00 0.05 0.05 41 1005.8
20260505183044 69 224 10.4 20.9 0.01 0.05 0.05 43 1005.6
20260505182541 68 230 9.6 16.5 0.01 0.05 0.05 44 1005.8
20260505182040 68 217 9.6 17.4 0.01 0.05 0.05 44 1005.8
20260505181557 67 226 9.6 17.4 0.01 0.05 0.05 46 1005.9
20260505181038 66 190 7.8 16.5 0.01 0.05 0.05 48 1005.8
20260505180537 66 249 7.8 13.0 0.01 0.05 0.05 49 1005.8
20260505180035 65 262 6.1 16.5 0.01 0.05 0.05 50 1005.8
20260505175535 65 219 9.6 15.6 0.01 0.05 0.05 49 1005.9
20260505175034 65 229 9.6 15.6 0.01 0.05 0.05 51 1005.9
20260505174538 65 192 8.7 14.8 0.01 0.05 0.05 52 1005.9
20260505174032 64 202 7.0 16.5 0.01 0.05 0.05 53 1006.0
20260505173532 64 217 9.6 15.6 0.01 0.05 0.05 53 1006.0
20260505173031 64 248 7.0 15.6 0.00 0.04 0.04 54 1005.9
20260505172531 64 205 5.2 12.2 0.00 0.04 0.04 56 1006.0
20260505172031 64 254 6.1 10.4 0.00 0.04 0.04 55 1006.0
20260505171537 64 213 6.1 12.2 0.00 0.04 0.04 57 1005.9
20260505171027 63 271 6.1 12.2 0.00 0.04 0.04 58 1005.9
20260505170528 62 221 7.0 10.4 0.00 0.04 0.04 60 1006.0
20260505170024 61 238 5.2 13.0 0.00 0.04 0.04 61 1005.9
20260505165522 61 236 7.8 13.0 0.00 0.04 0.04 62 1006.0
20260505165023 60 213 5.2 11.3 0.00 0.04 0.04 63 1006.0
20260505164522 60 175 3.5 7.8 0.00 0.04 0.04 64 1006.0
20260505164021 60 260 1.7 8.7 0.00 0.04 0.04 64 1005.9
20260505163524 60 250 4.3 8.7 0.00 0.04 0.04 64 1005.8
20260505163021 60 221 3.5 8.7 0.00 0.04 0.04 65 1005.8
20260505162520 60 225 3.5 8.7 0.00 0.04 0.04 64 1005.9
20260505162019 60 169 4.3 9.6 0.00 0.04 0.04 64 1005.9
20260505161517 60 208 2.6 7.0 0.00 0.04 0.04 65 1005.9
20260505161017 60 190 2.6 6.1 0.00 0.04 0.04 67 1005.8
20260505160521 59 140 2.6 6.1 0.00 0.04 0.04 67 1005.7
20260505153016 56 192 3.5 5.2 0.00 0.04 0.04 72 1005.7
20260505152507 56 167 3.5 7.0 0.00 0.04 0.04 73 1005.7
20260505152011 55 189 3.5 7.0 0.00 0.04 0.04 73 1005.7
20260505151506 55 177 3.5 7.8 0.00 0.04 0.04 73 1005.7
20260505151006 55 200 3.5 8.7 0.00 0.04 0.04 73 1005.6
20260505150509 55 146 3.5 8.7 0.00 0.04 0.04 73 1005.6
20260505140504 54 180 0.9 3.5 0.00 0.04 0.04 87 1005.0
20260505124559 52 105 1.7 6.1 0.01 0.04 0.04 87 1004.1
20260505124059 52 115 2.6 6.1 0.02 0.04 0.04 87 1004.1
20260505123659 52 103 2.6 6.1 0.02 0.04 0.04 87 1004.1
20260505123101 52 112 0.9 5.2 0.03 0.04 0.04 87 1004.1
20260505122557 52 121 1.7 5.2 0.03 0.04 0.04 87 1004.2
20260505122059 52 109 1.7 7.0 0.02 0.03 0.03 87 1004.1
20260505121557 51 88 3.5 6.1 0.02 0.03 0.03 87 1003.8
20260505121056 51 115 2.6 6.1 0.02 0.03 0.03 88 1003.9
20260505120557 51 113 0.9 5.2 0.02 0.03 0.03 89 1003.7
20260505120112 52 104 1.7 3.5 0.02 0.03 0.03 89 1003.7
20260505115554 52 88 0.0 4.3 0.02 0.03 0.03 90 1004.0
20260505115054 52 111 0.9 3.5 0.02 0.03 0.03 90 1004.0
20260505114555 52 123 0.0 2.6 0.02 0.03 0.03 90 1004.2
20260505114054 52 74 0.0 0.0 0.01 0.02 0.02 90 1004.5
20260505113555 52 74 0.0 0.0 0.01 0.02 0.02 90 1004.7
20260505113053 52 74 0.0 0.0 0.01 0.01 0.01 90 1004.6
20260505112551 51 74 0.0 0.0 0.01 0.01 0.01 89 1004.6
20260505112051 51 74 0.0 0.9 0.01 0.01 0.01 90 1004.6
20260505111551 51 74 0.0 1.7 0.01 0.01 0.01 90 1004.5
20260505111051 51 74 0.0 3.5 0.01 0.01 0.01 90 1004.4
20260505110552 52 74 1.7 3.5 0.01 0.01 0.01 89 1004.7
20260505110108 52 71 0.0 0.0 0.01 0.01 0.01 90 1004.7
20260505102042 52 11 1.7 4.3 0.00 0.00 0.00 88 1005.9
20260505101542 52 5 2.6 5.2 0.00 0.00 0.00 87 1006.0
20260505101041 52 5 1.7 7.0 0.00 0.00 0.00 87 1006.0
20260505100540 52 344 2.6 7.0 0.00 0.00 0.00 86 1006.1
20260505100040 52 5 2.6 5.2 0.00 0.00 0.00 86 1006.2
20260505095539 53 360 1.7 5.2 0.00 0.00 0.00 85 1006.2
20260505095036 53 9 2.6 7.0 0.00 0.00 0.00 85 1006.2
20260505094535 53 341 4.3 7.0 0.00 0.00 0.00 83 1006.4
20260505094034 54 338 3.5 8.7 0.00 0.00 0.00 83 1006.4
20260505093533 54 319 3.5 8.7 0.00 0.00 0.00 82 1006.5
20260505093033 54 340 3.5 7.8 0.00 0.00 0.00 80 1006.4
20260505092531 54 330 3.5 7.8 0.00 0.00 0.00 79 1006.7
20260505092030 54 314 2.6 7.0 0.00 0.00 0.00 78 1006.8
20260505091528 55 355 2.6 7.8 0.00 0.00 0.00 77 1006.8
20260505091027 55 317 4.3 10.4 0.00 0.00 0.00 76 1006.7
20260505090525 55 315 5.2 10.4 0.00 0.00 0.00 75 1006.8
20260505090025 55 331 5.2 10.4 0.00 0.00 0.00 74 1006.8
20260505085524 55 319 5.2 10.4 0.00 0.00 0.00 73 1006.9
20260505085022 56 302 4.3 10.4 0.00 0.00 0.00 72 1006.8
20260505084522 56 294 5.2 10.4 0.00 0.00 0.00 71 1006.9
20260505084020 56 320 4.3 8.7 0.00 0.00 0.00 71 1007.0
20260505083522 56 299 3.5 7.8 0.00 0.00 0.00 70 1007.1
20260505083019 56 318 4.3 7.0 0.00 0.00 0.00 70 1007.1
20260505082522 56 311 1.7 5.2 0.00 0.00 0.00 69 1007.1
20260505082017 56 333 1.7 5.2 0.00 0.00 0.00 68 1007.1
20260505081521 56 340 1.7 5.2 0.00 0.00 0.00 68 1007.1
20260505081019 56 332 0.0 3.5 0.00 0.00 0.00 67 1007.0
20260505080520 56 327 0.0 4.3 0.00 0.00 0.00 66 1007.1
20260505080016 56 324 1.7 4.3 0.00 0.00 0.00 66 1007.2
20260505075515 56 331 1.7 5.2 0.00 0.00 0.00 65 1007.3
20260505075012 56 290 2.6 5.2 0.00 0.00 0.00 64 1007.5
20260505074514 56 298 1.7 5.2 0.00 0.00 0.00 64 1007.3
20260505074014 56 302 1.7 4.3 0.00 0.00 0.00 64 1007.3
20260505073514 56 328 1.7 4.3 0.00 0.00 0.00 64 1007.3
20260505073012 56 318 0.9 4.3 0.00 0.00 0.00 64 1007.4
20260505072511 56 327 1.7 4.3 0.00 0.00 0.00 63 1007.5
20260505072010 57 323 0.9 4.3 0.00 0.00 0.00 63 1007.3
20260505071510 57 329 0.9 6.1 0.00 0.00 0.00 63 1007.3
20260505071010 57 313 2.6 7.0 0.00 0.00 0.00 64 1007.6
20260505070510 57 308 3.5 7.0 0.00 0.00 0.00 63 1007.5
20260505070007 57 313 3.5 7.8 0.00 0.00 0.00 62 1007.6
20260505065505 57 294 3.5 7.8 0.00 0.00 0.00 60 1007.4
20260505065004 57 305 0.9 3.5 0.00 0.00 0.00 57 1007.3
20260505064504 57 323 0.9 3.5 0.00 0.00 0.00 55 1007.3
20260505064007 57 311 0.9 5.2 0.00 0.00 0.00 55 1007.5
20260505063503 57 341 2.6 5.2 0.00 0.00 0.00 54 1007.6
20260505063004 57 333 2.6 4.3 0.00 0.00 0.00 52 1007.6
20260505062503 57 346 0.9 4.3 0.00 0.00 0.00 51 1007.8
20260505062003 57 9 0.9 3.5 0.00 0.00 0.00 51 1007.6
20260505061503 57 15 0.0 1.7 0.00 0.00 0.00 50 1007.8
20260505061002 57 15 0.0 0.0 0.00 0.00 0.00 49 1007.7
20260505060502 57 15 0.0 0.0 0.00 0.00 0.00 49 1007.4
20260505060003 57 15 0.0 0.9 0.00 0.00 0.00 48 1007.2
20260505055503 57 15 0.0 0.9 0.00 0.00 0.00 48 1007.1
20260505055002 57 15 0.0 0.9 0.00 0.00 0.00 47 1007.3
20260505054507 57 15 0.0 1.7 0.00 0.00 0.00 47 1007.2
20260505054002 57 15 0.0 2.6 0.00 0.00 0.00 47 1007.2
20260505053502 57 15 0.0 2.6 0.00 0.00 0.00 47 1007.3
20260505053001 57 15 0.0 2.6 0.00 0.00 0.00 46 1007.5
20260505052501 57 15 0.0 2.6 0.00 0.00 0.00 46 1007.6
20260505052101 57 22 0.0 1.7 0.00 0.00 0.00 46 1007.6
20260505051501 57 76 0.0 0.9 0.00 0.00 0.00 45 1007.6
20260505051001 57 76 0.0 1.7 0.00 0.00 0.00 46 1007.5
20260505050600 57 76 0.0 2.6 0.00 0.00 0.00 46 1007.5
20260505050109 57 76 1.7 2.6 0.00 0.00 0.00 45 1007.6
20260505041608 58 19 3.5 7.0 0.00 0.00 0.00 44 1007.0
20260505041058 58 344 2.6 5.2 0.00 0.00 0.00 44 1007.4
20260505040558 58 355 1.7 5.2 0.00 0.00 0.00 44 1007.6
20260505040104 58 327 0.9 7.0 0.00 0.00 0.00 44 1007.8
20260505035558 58 335 3.5 7.8 0.00 0.00 0.00 44 1007.6
20260505035058 58 319 3.5 9.6 0.00 0.00 0.00 44 1007.3
20260505034611 58 306 5.2 10.4 0.00 0.00 0.00 44 1007.3
20260505034159 58 326 3.5 10.4 0.00 0.00 0.00 43 1007.1
20260505033557 59 316 4.3 11.3 0.00 0.00 0.00 43 1006.9
20260505033057 59 306 6.1 13.9 0.00 0.00 0.00 43 1006.9
20260505032557 59 315 7.0 14.8 0.00 0.00 0.00 43 1006.9
20260505032056 59 296 7.8 13.0 0.00 0.00 0.00 43 1006.7
20260505031655 59 301 7.0 14.8 0.00 0.00 0.00 43 1006.6
20260505031055 60 289 8.7 15.6 0.00 0.00 0.00 42 1006.5
20260505030558 60 308 7.8 15.6 0.00 0.00 0.00 41 1006.5
20260505030109 60 267 8.7 16.5 0.00 0.00 0.00 41 1006.4
20260505025555 60 327 7.0 16.5 0.00 0.00 0.00 41 1006.2
20260505025055 61 313 6.1 14.8 0.00 0.00 0.00 41 1006.3
20260505024610 61 309 6.1 10.4 0.00 0.00 0.00 40 1006.2
20260505024054 62 305 5.2 10.4 0.00 0.00 0.00 39 1006.2
20260505023554 62 320 5.2 10.4 0.00 0.00 0.00 38 1005.9
20260505023054 62 292 4.3 12.2 0.00 0.00 0.00 37 1005.9
20260505022556 63 310 5.2 12.2 0.00 0.00 0.00 37 1005.8
20260505022054 63 327 5.2 12.2 0.00 0.00 0.00 36 1005.8
20260505021554 63 289 5.2 12.2 0.00 0.00 0.00 35 1005.6
20260505021053 64 302 5.2 12.2 0.00 0.00 0.00 34 1005.6
20260505020553 64 275 6.1 11.3 0.00 0.00 0.00 34 1005.7
20260505020105 65 319 4.3 11.3 0.00 0.00 0.00 32 1005.8
20260505015553 65 281 7.0 11.3 0.00 0.00 0.00 31 1005.7
20260505015057 65 304 6.1 10.4 0.00 0.00 0.00 30 1005.6
20260505014553 65 296 5.2 11.3 0.00 0.00 0.00 30 1005.4
20260505014052 66 263 6.1 12.2 0.00 0.00 0.00 29 1005.2
20260505013552 66 298 6.1 12.2 0.00 0.00 0.00 28 1005.2
20260505013052 67 275 6.1 11.3 0.00 0.00 0.00 27 1005.2
20260505012552 68 273 6.1 15.6 0.00 0.00 0.00 27 1005.2
20260505012051 68 324 8.7 15.6 0.00 0.00 0.00 25 1005.2
20260505011555 69 296 7.8 14.8 0.00 0.00 0.00 25 1005.1
20260505011051 69 300 7.8 18.2 0.00 0.00 0.00 25 1005.2
20260505010551 70 302 10.4 18.2 0.00 0.00 0.00 24 1005.2
20260505010107 70 298 9.6 16.5 0.00 0.00 0.00 24 1005.0
20260505005550 70 294 8.7 14.8 0.00 0.00 0.00 24 1005.1
20260505005052 70 317 8.7 15.6 0.00 0.00 0.00 24 1005.1
20260505004602 70 319 9.6 15.6 0.00 0.00 0.00 24 1005.2
20260505004050 70 314 8.7 15.6 0.00 0.00 0.00 25 1005.4
20260505003550 70 278 9.6 18.2 0.00 0.00 0.00 25 1005.4
20260505003052 70 270 8.7 20.0 0.00 0.00 0.00 25 1005.3
20260505002550 71 312 12.2 20.0 0.00 0.00 0.00 24 1005.0
20260505002049 73 290 13.9 19.1 0.00 0.00 0.00 22 1004.9
20260505001550 73 298 8.7 15.6 0.00 0.00 0.00 25 1004.8
20260505001049 73 310 8.7 15.6 0.00 0.00 0.00 26 1004.8
20260505000548 73 293 6.1 16.5 0.00 0.00 0.00 26 1004.7
20260505000056 73 277 7.8 16.5 0.00 0.00 0.00 26 1004.9
20260504235548 72 277 10.4 14.8 0.00 0.00 0.00 26 1005.0
20260504235049 72 282 7.8 16.5 0.00 0.00 0.00 27 1005.0
20260504234548 72 289 8.7 16.5 0.00 0.00 0.00 27 1005.1
20260504234048 72 279 7.8 16.5 0.00 0.00 0.00 26 1005.0
20260504233548 72 286 8.7 16.5 0.00 0.00 0.00 26 1005.3
20260504233049 71 304 9.6 18.2 0.00 0.00 0.00 26 1005.2
20260504232548 71 280 8.7 18.2 0.00 0.00 0.00 26 1005.3
20260504232047 72 313 11.3 17.4 0.00 0.00 0.00 26 1005.1
20260504231618 72 279 10.4 17.4 0.00 0.00 0.00 26 1005.2
20260504231046 73 287 9.6 17.4 0.00 0.00 0.00 23 1005.1
20260504230547 74 302 9.6 16.5 0.00 0.00 0.00 22 1005.0
20260504230046 74 292 10.4 16.5 0.00 0.00 0.00 20 1004.9
20260504225547 75 274 5.2 12.2 0.00 0.00 0.00 19 1004.9
20260504225049 75 242 7.8 12.2 0.00 0.00 0.00 19 1004.9
20260504224545 75 261 7.0 14.8 0.00 0.00 0.00 19 1004.8